Location: Cactus School
(34.5700°N, 118.0931°W)
Time: 17:16:35
(UTC-08:00)

Tiros 1 - Pass Details

Date: 30 November 2019
Orbit: 630 x 664 km, 48.4° (Epoch: 07 December)

Event Time Altitude Azimuth Distance (km) Brightness Sun altitude
Rises 15:07:21 0° 312° (NW) 2,917 10.6 15.4°
Reaches altitude 10° 15:09:47 10° 319° (NW) 2,008 9.7 15.0°
Maximum altitude 15:14:10 41° 30° (NNE) 909 7.7 14.3°
Drops below altitude 10° 15:18:32 10° 102° (ESE) 2,009 9.4 13.6°
Sets 15:20:58 0° 109° (ESE) 2,919 10.2 13.3°
